Wind_Speed
5 5 4 3 4 3 4 5 5 4 4 3 3 3 4 5 6 7 9 10 10 10 11 11 11 12 13 13 14 15 15 15 16 16 16 15 15 15 15 15 15 15 15 15 14 14 13 13 13
6 5 5 4 4 3 3 4 5 5 4 4 4 4 6 7 8 9 10 11 11 12 12 12 12 13 14 15 16 18 19 18 19 18 18 18 18 18 17 17 18 17 17 16 16 15 14 13 13
7 6 6 5 4 4 3 4 4 4 4 5 5 6 8 9 10 11 11 12 13 14 15 15 15 15 16 18 19 21 22 21 21 21 21 21 21 20 20 20 20 19 19 18 16 16 15 14 14
9 7 7 5 4 4 4 4 4 5 5 6 7 8 10 11 11 12 13 14 14 15 16 17 17 18 20 21 22 24 24 24 24 24 24 24 23 23 23 23 22 22 21 20 19 18 17 15 15
10 8 8 7 6 6 4 4 5 6 6 8 9 11 12 12 12 13 14 15 16 16 17 18 19 20 21 22 23 25 25 26 25 25 26 27 27 27 27 26 25 25 24 23 22 20 19 17 17
12 10 10 9 7 6 5 5 7 7 8 10 11 12 13 13 13 14 15 15 16 16 17 17 18 19 20 21 22 24 25 26 27 27 28 29 29 29 29 28 28 28 26 25 24 22 19 19 17
13 12 11 10 9 8 8 8 8 9 9 11 12 12 12 13 14 14 14 15 15 16 16 17 17 18 19 20 21 22 24 25 27 28 29 30 31 31 31 30 30 30 29 27 26 24 21 20 18
14 13 12 11 10 10 10 9 9 10 10 11 11 12 12 13 13 13 13 14 14 15 15 16 16 17 17 18 19 20 22 23 25 27 28 30 30 31 31 31 32 32 30 29 28 26 24 21 20
15 14 13 12 11 11 10 9 9 10 11 10 11 12 12 13 13 13 13 13 13 13 14 14 14 15 16 17 17 18 19 21 23 24 26 28 29 30 30 30 30 31 32 31 29 27 26 25 22
17 16 16 14 13 12 11 11 11 11 11 11 11 12 12 12 12 12 11 11 11 12 12 12 13 13 14 14 15 16 17 18 20 21 23 25 26 28 29 30 30 31 31 32 31 29 27 26 25
19 18 16 15 13 12 12 11 11 12 12 11 11 12 12 11 11 11 10 10 10 10 10 11 11 12 13 14 14 15 16 17 18 19 21 22 24 26 27 28 29 30 31 32 32 31 29 27 26
19 18 17 16 13 13 12 12 12 13 12 12 12 12 11 10 10 9 8 9 9 9 9 9 10 11 12 14 15 15 16 16 17 17 18 19 20 23 25 26 27 29 30 30 31 32 30 29 26
20 18 16 15 13 12 12 12 13 13 12 12 12 11 10 9 8 8 7 7 7 7 8 9 10 11 13 14 14 15 16 17 17 16 17 17 18 19 21 23 25 26 28 29 30 30 30 30 28
19 17 17 14 12 11 11 12 13 12 12 12 12 11 9 8 7 6 6 6 6 6 7 9 10 11 13 14 15 16 16 17 17 16 16 16 16 16 18 19 21 24 26 27 28 29 29 29 28
18 17 15 13 12 12 12 12 13 12 12 12 11 10 8 7 6 5 5 5 4 5 7 8 9 11 13 14 15 16 17 17 17 16 16 16 15 15 16 17 18 20 22 24 25 27 27 27 28
17 16 14 13 13 12 12 13 12 12 12 11 9 9 8 6 5 5 4 3 3 5 6 8 9 11 13 14 15 16 17 18 17 17 16 15 15 14 14 14 15 17 19 21 22 24 25 25 26
16 15 14 13 13 13 12 13 13 12 11 10 9 8 7 6 5 5 4 3 3 4 5 7 9 11 13 14 15 16 17 18 18 17 16 16 14 13 12 12 12 14 16 18 19 21 23 24 25
15 14 13 14 14 13 13 12 13 12 11 10 9 8 7 6 6 5 4 2 2 3 5 7 9 11 13 14 15 17 18 18 18 18 17 16 15 13 11 10 10 11 12 14 16 19 21 23 24
15 14 12 13 13 13 13 13 13 12 11 10 9 8 7 7 6 5 4 3 2 3 4 7 9 11 13 14 15 16 17 18 18 18 17 16 15 14 12 10 8 8 10 11 13 16 19 21 22
14 12 13 13 12 12 12 12 13 12 11 11 10 9 8 7 7 6 5 3 2 3 4 6 9 11 13 14 15 16 17 18 18 18 18 17 16 14 13 10 7 6 6 8 10 13 15 19 21
13 13 13 12 12 11 11 11 13 12 11 10 9 9 9 8 7 7 6 4 3 3 4 6 8 10 12 14 15 16 17 18 18 18 18 17 16 15 13 11 8 6 4 5 8 10 13 15 18
13 13 12 12 11 11 11 11 12 13 12 11 10 10 9 9 8 8 7 5 4 3 4 6 8 10 12 14 15 16 17 17 17 18 18 18 17 15 14 11 9 7 5 4 5 8 10 13 15
13 12 12 12 12 11 12 12 11 12 12 11 11 10 10 10 9 9 7 5 4 4 5 6 8 10 12 13 15 16 16 17 17 17 18 18 17 16 14 12 10 8 6 4 4 7 9 11 13
13 12 12 12 13 12 13 13 11 11 11 11 11 11 11 11 10 9 8 6 5 5 5 6 8 10 11 13 15 16 16 16 17 17 17 18 17 16 15 13 11 9 7 5 4 4 6 9 11
12 12 12 13 13 13 13 12 11 12 11 11 11 11 12 11 11 10 8 7 7 6 6 7 8 9 11 13 14 15 16 16 16 16 17 17 17 16 16 14 12 10 8 7 6 5 5 7 9
12 12 13 14 14 14 13 12 12 13 12 12 11 12 12 12 11 10 9 8 7 7 7 7 8 9 11 12 14 15 15 16 16 16 16 16 16 16 16 15 13 11 10 8 7 6 5 6 7
12 13 13 14 14 14 13 12 13 14 13 13 12 12 13 13 12 11 10 9 8 7 7 8 9 10 11 12 13 14 15 15 15 15 15 16 16 16 15 15 13 12 10 9 8 7 6 5 6
12 13 13 14 15 14 13 13 14 15 14 13 13 13 13 14 13 12 11 10 9 8 8 8 9 10 11 12 13 13 14 15 15 15 15 15 15 15 15 14 13 12 11 9 8 7 6 6 5
13 14 14 15 16 16 15 13 15 15 15 15 15 15 15 15 14 13 12 11 10 9 8 9 9 10 10 11 12 13 13 14 14 15 15 15 15 15 15 14 14 13 12 10 9 8 7 6 5
15 15 16 17 18 17 17 13 15 16 16 16 16 16 16 16 16 15 14 12 11 10 9 9 9 10 10 11 11 12 13 13 14 14 15 15 15 15 15 15 14 13 12 11 10 9 8 7 6
Wind_Direction
240 254 261 276 279 253 206 200 210 219 226 244 261 277 286 293 296 296 301 300 298 299 299 293 288 284 278 276 275 272 268 265 263 261 258 253 249 248 249 251 250 248 247 246 245 244 245 246 248
244 256 265 291 298 275 224 214 221 227 242 250 261 281 291 296 297 298 300 300 297 299 298 296 291 288 283 282 281 277 273 268 265 263 262 260 257 254 251 252 250 250 249 249 248 245 245 246 247
240 251 268 285 292 269 257 240 240 250 258 262 273 288 296 298 297 298 299 297 296 297 296 293 290 287 285 283 282 279 276 269 267 266 264 263 262 259 256 255 252 251 250 249 250 246 244 246 245
238 247 261 272 287 291 275 253 251 262 274 281 290 296 299 301 299 299 299 298 297 296 296 293 289 287 285 283 281 279 278 272 267 266 265 264 263 263 260 257 256 254 253 252 253 251 246 243 242
239 246 257 262 275 280 273 268 272 271 281 289 294 298 300 302 302 302 301 300 300 300 298 295 292 289 286 284 281 279 278 275 270 269 269 267 266 264 262 260 261 258 256 255 256 257 250 245 242
240 245 251 260 267 270 270 275 280 280 286 292 295 299 302 303 304 305 306 306 306 304 302 298 295 291 288 285 283 280 279 277 273 271 269 268 267 266 264 262 261 259 257 256 257 257 254 253 248
240 243 249 256 261 268 268 271 281 285 288 292 296 300 302 304 306 308 310 311 310 310 308 306 302 298 294 290 286 283 279 277 274 272 269 270 268 266 263 260 259 258 256 254 255 253 252 252 250
237 242 246 252 258 266 270 273 280 284 286 292 296 300 303 305 308 310 312 313 314 314 313 311 308 305 302 298 293 289 285 281 277 274 273 271 269 266 263 260 257 255 255 254 253 253 253 251 250
239 240 245 251 256 262 267 271 280 290 293 294 295 298 302 306 309 311 314 315 317 318 318 318 317 316 313 308 303 298 293 288 283 279 275 273 270 266 263 261 258 255 254 253 253 252 251 250 248
238 241 245 251 256 264 266 273 282 290 292 292 294 298 302 305 309 312 316 318 321 324 326 327 328 328 327 323 318 312 306 300 293 286 280 275 272 269 266 261 258 255 253 253 252 250 248 248 246
237 241 244 248 253 264 269 273 282 289 290 289 294 298 302 304 307 312 316 320 327 332 334 335 337 339 337 334 330 325 318 310 303 296 288 282 275 270 267 262 259 256 254 252 251 249 246 244 245
236 241 244 246 255 266 269 277 283 287 286 286 291 296 300 302 306 311 316 324 331 336 339 343 346 345 343 341 337 333 328 322 314 307 299 290 282 274 269 264 260 257 255 252 250 248 245 242 242
235 239 244 250 259 267 270 275 282 285 283 284 290 294 296 298 303 308 316 325 333 341 348 350 349 349 348 346 343 340 336 332 327 318 310 301 292 283 273 266 262 259 256 252 248 246 244 241 239
233 240 246 251 262 273 273 273 275 278 279 285 288 289 296 296 297 305 316 326 338 350 354 354 355 354 353 352 350 346 343 339 334 328 322 312 301 291 280 271 265 261 256 251 246 243 242 241 238
230 237 243 251 261 269 270 273 273 273 278 283 284 284 291 290 290 299 312 327 341 352 355 357 359 358 357 356 355 352 348 346 342 336 330 322 312 299 287 276 269 263 258 252 245 240 240 238 237
226 232 239 248 255 260 267 271 271 272 278 281 279 281 284 278 278 287 302 318 341 352 357 0 2 1 0 359 357 355 353 351 349 345 338 331 323 313 297 285 275 265 258 252 245 238 235 233 232
223 232 238 247 252 257 264 267 267 270 275 278 278 277 273 266 267 277 283 298 332 347 357 3 4 2 1 0 359 358 357 356 354 352 349 343 335 327 314 296 285 270 259 250 243 238 235 232 229
221 230 239 246 248 253 260 265 267 269 272 277 274 269 262 255 259 265 264 273 315 340 355 2 4 3 2 2 1 1 360 359 358 357 355 352 347 339 327 311 295 276 262 251 243 237 235 232 229
217 225 236 243 248 252 259 264 269 270 272 275 271 263 254 248 253 252 248 256 295 330 352 1 4 3 3 3 2 3 2 1 1 1 360 358 354 350 341 327 310 286 267 254 243 237 233 232 230
215 222 232 240 246 252 257 265 270 273 274 272 267 257 248 245 246 242 237 248 276 314 346 356 0 1 3 3 4 4 4 3 3 4 4 3 2 360 356 346 331 310 281 260 245 237 233 232 230
216 223 231 241 249 256 263 269 275 276 275 270 262 254 246 242 239 235 235 245 267 301 337 349 353 357 0 2 3 3 3 3 4 5 6 6 5 4 2 360 353 339 309 269 247 236 233 233 233
217 225 233 243 254 265 270 273 276 279 276 270 260 252 244 238 234 231 233 242 263 291 325 340 347 353 357 359 360 1 1 2 4 5 7 8 8 7 6 3 1 356 340 294 256 244 238 235 233
219 228 238 250 263 272 274 278 279 277 271 264 257 250 242 236 232 228 231 243 262 284 312 332 342 349 353 356 358 359 360 1 2 5 7 8 9 10 9 8 4 1 355 333 277 254 247 240 236
223 234 247 260 271 277 277 279 280 275 267 260 253 246 239 234 230 228 232 245 261 279 303 324 336 344 349 352 355 358 360 1 2 4 6 8 9 11 12 10 8 5 1 354 328 285 256 245 241
228 242 259 269 275 279 276 278 279 272 265 257 249 243 236 233 229 228 234 247 260 276 297 316 329 339 345 350 353 356 358 0 2 4 5 8 9 10 11 11 10 8 4 354 340 321 284 257 247
234 247 259 269 274 276 277 277 273 268 262 255 249 242 235 231 228 229 234 246 258 274 292 309 323 334 341 346 350 355 358 360 2 3 5 6 8 8 9 9 9 7 4 357 347 333 306 275 259
242 254 264 272 274 277 277 274 269 266 261 254 248 241 234 230 228 229 235 245 256 271 288 304 317 328 336 342 347 352 356 358 0 2 3 4 5 6 7 7 8 6 3 359 352 340 323 295 273
251 260 267 273 279 280 277 274 267 264 260 253 246 239 234 231 230 231 237 244 254 267 284 300 313 324 332 338 343 349 353 355 358 360 1 1 2 2 3 5 6 6 3 359 353 346 330 310 290
257 262 268 272 277 280 277 273 268 263 258 252 246 240 235 232 231 234 238 243 252 263 279 295 308 320 329 336 341 346 350 353 356 357 358 359 359 360 0 0 1 2 2 359 353 348 343 324 303
262 266 271 277 279 279 276 271 268 263 257 251 247 242 237 234 233 235 239 243 249 260 274 289 302 314 324 332 339 344 347 350 353 355 356 357 357 357 356 356 357 357 356 355 352 346 342 333 316
Height
5890 5890 5891 5892 5892 5892 5891 5892 5893 5892 5892 5892 5892 5892 5892 5892 5892 5893 5890 5887 5886 5885 5883 5882 5881 5881 5880 5879 5879 5878 5878 5877 5877 5876 5876 5876 5876 5875 5875 5875 5876 5876 5876 5876 5876 5876 5876 5877 5877
5890 5890 5892 5892 5891 5891 5891 5891 5891 5892 5892 5891 5891 5891 5890 5890 5889 5888 5886 5885 5884 5882 5881 5880 5879 5878 5878 5877 5876 5875 5874 5874 5873 5872 5872 5872 5872 5872 5872 5872 5872 5872 5873 5873 5873 5873 5874 5874 5875
5889 5890 5891 5891 5890 5890 5890 5890 5890 5890 5890 5890 5890 5889 5889 5888 5887 5886 5884 5883 5882 5880 5879 5878 5877 5876 5875 5874 5873 5872 5871 5870 5869 5868 5868 5868 5868 5868 5868 5868 5868 5868 5869 5869 5870 5870 5870 5871 5872
5888 5889 5890 5891 5890 5890 5889 5889 5889 5889 5889 5889 5888 5888 5887 5886 5885 5883 5882 5880 5879 5878 5876 5875 5873 5872 5871 5870 5869 5868 5867 5866 5865 5864 5863 5863 5863 5863 5863 5863 5864 5864 5864 5865 5866 5866 5867 5868 5869
5886 5888 5889 5889 5888 5888 5888 5888 5888 5888 5887 5887 5886 5885 5884 5883 5882 5880 5879 5878 5876 5875 5873 5871 5870 5868 5867 5865 5864 5863 5862 5860 5859 5858 5858 5858 5857 5858 5858 5858 5858 5859 5859 5860 5861 5862 5863 5864 5865
5885 5886 5888 5887 5887 5887 5887 5887 5886 5886 5886 5885 5884 5883 5882 5881 5879 5878 5876 5875 5873 5871 5869 5867 5866 5864 5863 5861 5859 5858 5857 5855 5854 5853 5852 5852 5852 5852 5852 5852 5853 5853 5854 5855 5856 5857 5858 5860 5861
5883 5884 5885 5885 5885 5885 5885 5885 5885 5884 5884 5883 5882 5881 5880 5879 5877 5875 5873 5872 5870 5868 5866 5864 5862 5860 5858 5857 5855 5853 5852 5850 5849 5847 5846 5846 5845 5846 5846 5846 5847 5848 5849 5850 5851 5852 5853 5854 5856
5880 5882 5882 5883 5883 5883 5883 5883 5883 5882 5881 5881 5880 5879 5878 5877 5875 5873 5871 5869 5867 5865 5863 5861 5859 5857 5855 5852 5850 5848 5847 5845 5843 5842 5840 5840 5839 5839 5839 5839 5840 5841 5843 5844 5845 5847 5848 5850 5851
5877 5881 5880 5881 5881 5881 5881 5881 5881 5880 5879 5878 5877 5877 5876 5874 5872 5871 5869 5867 5865 5863 5861 5858 5856 5854 5851 5849 5846 5844 5842 5840 5838 5836 5835 5833 5833 5832 5832 5833 5833 5835 5836 5837 5839 5841 5843 5845 5846
5875 5877 5877 5878 5879 5879 5879 5879 5879 5878 5877 5876 5875 5874 5873 5872 5870 5869 5867 5865 5863 5861 5859 5856 5854 5851 5848 5846 5843 5840 5838 5836 5833 5831 5829 5827 5826 5826 5825 5826 5827 5828 5830 5831 5833 5835 5837 5839 5841
5871 5873 5874 5876 5876 5876 5876 5876 5876 5875 5875 5874 5873 5872 5871 5870 5868 5867 5865 5863 5861 5859 5857 5854 5852 5849 5847 5844 5841 5837 5834 5832 5829 5826 5824 5822 5820 5819 5819 5819 5820 5821 5823 5824 5827 5829 5831 5834 5836
5869 5870 5872 5873 5874 5874 5874 5874 5873 5873 5872 5872 5871 5870 5869 5868 5866 5865 5863 5861 5859 5857 5855 5853 5851 5848 5845 5842 5839 5835 5832 5828 5825 5822 5819 5817 5815 5814 5813 5813 5814 5815 5816 5818 5820 5823 5825 5828 5831
5866 5867 5869 5870 5871 5871 5871 5871 5871 5870 5870 5869 5868 5868 5867 5866 5864 5863 5862 5860 5858 5856 5854 5852 5849 5847 5844 5840 5837 5833 5829 5825 5822 5818 5815 5813 5811 5809 5808 5808 5808 5809 5810 5811 5813 5817 5820 5822 5825
5863 5865 5866 5867 5868 5869 5869 5868 5868 5868 5867 5867 5866 5865 5865 5864 5863 5861 5860 5859 5857 5855 5853 5851 5848 5845 5842 5839 5835 5831 5827 5823 5819 5815 5812 5809 5806 5804 5803 5802 5802 5803 5804 5805 5807 5810 5813 5816 5820
5860 5863 5864 5865 5866 5866 5867 5867 5866 5865 5865 5864 5864 5863 5863 5862 5861 5860 5859 5858 5856 5854 5852 5850 5847 5844 5841 5837 5834 5830 5825 5821 5817 5813 5809 5806 5803 5800 5798 5798 5797 5797 5798 5799 5801 5804 5808 5811 5814
5858 5860 5862 5863 5863 5864 5866 5865 5864 5863 5863 5862 5862 5861 5861 5860 5860 5859 5858 5857 5855 5854 5852 5849 5847 5844 5840 5837 5833 5829 5824 5820 5815 5811 5807 5803 5800 5797 5794 5793 5792 5792 5792 5794 5796 5799 5802 5806 5809
5855 5858 5859 5861 5861 5861 5862 5862 5861 5861 5860 5860 5860 5859 5859 5858 5858 5858 5857 5856 5855 5853 5851 5849 5846 5843 5839 5836 5832 5828 5823 5818 5814 5810 5805 5801 5797 5794 5792 5790 5789 5788 5788 5790 5792 5794 5798 5801 5804
5854 5855 5857 5858 5858 5859 5859 5859 5859 5859 5858 5858 5858 5857 5857 5857 5857 5856 5856 5855 5854 5852 5850 5848 5845 5842 5839 5835 5831 5827 5822 5818 5813 5809 5804 5800 5796 5792 5789 5787 5786 5785 5785 5786 5788 5790 5793 5796 5800
5851 5853 5855 5855 5856 5856 5857 5857 5856 5856 5856 5856 5855 5855 5855 5855 5855 5855 5855 5854 5853 5851 5850 5847 5844 5841 5838 5834 5830 5826 5822 5817 5813 5808 5804 5799 5795 5791 5788 5786 5784 5783 5783 5783 5785 5787 5789 5792 5796
5849 5851 5852 5853 5853 5854 5854 5855 5854 5854 5854 5853 5853 5853 5854 5854 5854 5854 5854 5853 5852 5851 5849 5846 5844 5841 5837 5834 5830 5826 5822 5817 5813 5808 5804 5799 5795 5791 5788 5785 5783 5781 5781 5781 5782 5784 5786 5789 5791
5847 5849 5850 5851 5851 5852 5853 5853 5852 5851 5851 5851 5851 5851 5852 5852 5852 5852 5852 5852 5851 5849 5848 5846 5843 5840 5837 5833 5829 5825 5821 5817 5812 5808 5804 5799 5795 5791 5787 5784 5782 5781 5780 5780 5780 5781 5783 5785 5787
5845 5847 5848 5849 5849 5850 5851 5851 5850 5849 5848 5848 5849 5849 5850 5850 5850 5851 5851 5850 5850 5848 5847 5845 5842 5839 5836 5833 5829 5825 5821 5817 5812 5808 5804 5799 5795 5791 5788 5785 5782 5781 5779 5779 5779 5780 5781 5782 5784
5843 5845 5846 5847 5847 5848 5848 5848 5849 5846 5846 5846 5847 5847 5847 5848 5849 5849 5849 5849 5848 5847 5846 5844 5841 5838 5835 5832 5828 5824 5820 5816 5812 5808 5804 5800 5795 5792 5788 5785 5782 5780 5779 5778 5778 5778 5779 5780 5781
5842 5844 5844 5845 5845 5846 5845 5845 5846 5844 5844 5844 5844 5845 5845 5846 5847 5847 5847 5847 5847 5846 5844 5842 5840 5838 5834 5831 5828 5824 5820 5816 5812 5808 5804 5800 5796 5792 5788 5785 5783 5780 5779 5778 5777 5776 5777 5777 5778
5840 5842 5844 5844 5844 5844 5843 5842 5843 5842 5841 5841 5842 5842 5843 5844 5844 5845 5846 5846 5845 5844 5843 5841 5839 5836 5834 5830 5827 5823 5819 5815 5812 5808 5804 5800 5796 5792 5789 5786 5783 5780 5779 5777 5776 5775 5775 5775 5776
5839 5840 5842 5842 5841 5841 5840 5840 5840 5839 5838 5839 5839 5840 5840 5841 5842 5843 5843 5844 5843 5843 5842 5840 5838 5835 5832 5829 5826 5822 5819 5815 5811 5808 5804 5800 5796 5793 5789 5786 5783 5781 5778 5777 5775 5774 5773 5773 5774
5837 5837 5838 5838 5838 5838 5838 5837 5837 5836 5836 5836 5836 5837 5838 5839 5840 5841 5841 5842 5841 5841 5840 5838 5836 5834 5831 5828 5825 5821 5818 5814 5811 5807 5804 5800 5797 5793 5790 5786 5783 5781 5778 5776 5774 5773 5772 5771 5771
5835 5835 5835 5835 5834 5835 5835 5834 5834 5833 5833 5833 5834 5834 5835 5836 5837 5838 5839 5839 5839 5839 5838 5836 5835 5832 5830 5827 5824 5821 5817 5814 5810 5807 5803 5800 5797 5793 5790 5786 5783 5781 5778 5776 5774 5772 5770 5769 5769
5832 5833 5832 5832 5831 5831 5831 5833 5830 5829 5829 5830 5830 5831 5832 5833 5834 5835 5836 5836 5837 5836 5836 5834 5833 5831 5828 5825 5822 5819 5816 5813 5810 5806 5803 5800 5796 5793 5790 5786 5783 5780 5778 5775 5773 5771 5769 5768 5767
5829 5829 5829 5829 5828 5827 5827 5831 5826 5825 5825 5826 5827 5827 5829 5830 5831 5832 5833 5833 5834 5834 5833 5832 5831 5829 5826 5824 5821 5818 5815 5812 5809 5805 5802 5799 5796 5792 5789 5786 5783 5780 5777 5775 5772 5770 5768 5767 5765